Time,TemperatureF,DewpointF,PressureIn,WindDirection,WindDirectionDegrees,WindSpeedMPH,WindSpeedGustMPH,Humidity,HourlyPrecipIn,Conditions,Clouds,dailyrainin,SoftwareType,DateUTC
2013-06-01 00:05:00,69.2,68.0,29.83,SSW,208,1.0,10.0,95,0.00,,,0.00,weatherlink.com 1.10,2013-06-01 04:05:00,
2013-06-01 00:20:00,69.5,68.0,29.84,SSW,199,1.0,7.0,95,0.00,,,0.00,weatherlink.com 1.10,2013-06-01 04:20:00,
2013-06-01 00:35:00,69.6,68.0,29.84,West,262,0.0,4.0,95,0.00,,,0.00,weatherlink.com 1.10,2013-06-01 04:35:00,
2013-06-01 00:50:00,69.5,68.0,29.83,WSW,251,1.0,4.0,95,0.01,,,0.01,weatherlink.com 1.10,2013-06-01 04:50:00,
2013-06-01 01:05:00,69.3,68.0,29.81,West,261,5.0,6.0,94,0.02,,,0.02,weatherlink.com 1.10,2013-06-01 05:05:00,
2013-06-01 01:20:00,69.0,67.0,29.81,SW,223,2.0,5.0,94,0.02,,,0.02,weatherlink.com 1.10,2013-06-01 05:20:00,
2013-06-01 01:36:00,68.7,67.0,29.80,WSW,243,0.0,5.0,93,0.02,,,0.02,weatherlink.com 1.10,2013-06-01 05:36:00,
2013-06-01 01:51:00,68.5,66.0,29.78,SSW,200,1.0,7.0,92,0.00,,,0.02,weatherlink.com 1.10,2013-06-01 05:51:00,
2013-06-01 02:06:00,68.2,66.0,29.80,NNW,333,0.0,4.0,92,0.00,,,0.02,weatherlink.com 1.10,2013-06-01 06:06:00,
2013-06-01 02:21:00,68.0,66.0,29.80,SSE,168,1.0,3.0,92,0.00,,,0.02,weatherlink.com 1.10,2013-06-01 06:21:00,
2013-06-01 02:36:00,67.7,65.0,29.80,NW,313,0.0,4.0,92,0.00,,,0.02,weatherlink.com 1.10,2013-06-01 06:36:00,
2013-06-01 02:51:00,67.5,65.0,29.79,SW,229,0.0,1.0,92,0.00,,,0.02,weatherlink.com 1.10,2013-06-01 06:51:00,
2013-06-01 03:06:00,67.3,65.0,29.78,SW,229,0.0,1.0,92,0.00,,,0.02,weatherlink.com 1.10,2013-06-01 07:06:00,
2013-06-01 03:21:00,67.0,65.0,29.79,South,184,1.0,2.0,93,0.00,,,0.02,weatherlink.com 1.10,2013-06-01 07:21:00,
2013-06-01 03:36:00,66.6,65.0,29.80,SSE,158,4.0,6.0,93,0.01,,,0.03,weatherlink.com 1.10,2013-06-01 07:36:00,
2013-06-01 03:51:00,66.1,64.0,29.80,SSW,205,0.0,5.0,91,0.01,,,0.03,weatherlink.com 1.10,2013-06-01 07:51:00,
2013-06-01 04:06:00,65.8,63.0,29.80,SW,225,1.0,5.0,90,0.01,,,0.03,weatherlink.com 1.10,2013-06-01 08:06:00,
2013-06-01 04:21:00,65.6,63.0,29.81,West,275,2.0,5.0,91,0.01,,,0.03,weatherlink.com 1.10,2013-06-01 08:21:00,
2013-06-01 04:36:00,65.1,63.0,29.83,West,260,4.0,7.0,92,0.04,,,0.07,weatherlink.com 1.10,2013-06-01 08:36:00,
2013-06-01 04:51:00,64.6,63.0,29.84,SW,234,1.0,4.0,93,0.08,,,0.11,weatherlink.com 1.10,2013-06-01 08:51:00,
2013-06-01 05:06:00,64.2,63.0,29.84,SE,134,1.0,6.0,94,0.16,,,0.19,weatherlink.com 1.10,2013-06-01 09:06:00,
2013-06-01 05:21:00,64.0,63.0,29.83,South,190,4.0,5.0,95,0.25,,,0.28,weatherlink.com 1.10,2013-06-01 09:21:00,
2013-06-01 05:36:00,63.9,63.0,29.82,North,5,1.0,3.0,95,0.24,,,0.31,weatherlink.com 1.10,2013-06-01 09:36:00,
2013-06-01 05:51:00,63.8,63.0,29.77,SE,136,0.0,2.0,96,0.20,,,0.31,weatherlink.com 1.10,2013-06-01 09:51:00,
2013-06-01 06:06:00,63.7,63.0,29.79,SE,136,0.0,1.0,96,0.11,,,0.31,weatherlink.com 1.10,2013-06-01 10:06:00,
2013-06-01 06:21:00,63.7,63.0,29.79,West,275,0.0,3.0,96,0.04,,,0.32,weatherlink.com 1.10,2013-06-01 10:21:00,
2013-06-01 06:36:00,63.8,63.0,29.81,South,175,1.0,2.0,97,0.01,,,0.32,weatherlink.com 1.10,2013-06-01 10:36:00,
2013-06-01 06:51:00,63.8,63.0,29.80,SW,234,1.0,3.0,97,0.01,,,0.32,weatherlink.com 1.10,2013-06-01 10:51:00,
2013-06-01 07:06:00,63.7,63.0,29.81,SSW,206,0.0,6.0,97,0.01,,,0.32,weatherlink.com 1.10,2013-06-01 11:06:00,
2013-06-01 07:21:00,63.7,63.0,29.80,NE,43,2.0,5.0,97,0.00,,,0.32,weatherlink.com 1.10,2013-06-01 11:21:00,
2013-06-01 07:36:00,63.8,63.0,29.80,West,266,1.0,2.0,97,0.00,,,0.32,weatherlink.com 1.10,2013-06-01 11:36:00,
2013-06-01 07:51:00,64.0,63.0,29.78,SW,227,1.0,5.0,97,0.00,,,0.32,weatherlink.com 1.10,2013-06-01 11:51:00,
2013-06-01 08:06:00,64.3,64.0,29.77,East,96,1.0,3.0,97,0.00,,,0.32,weatherlink.com 1.10,2013-06-01 12:06:00,
2013-06-01 08:21:00,64.7,64.0,29.77,WSW,238,1.0,3.0,97,0.00,,,0.32,weatherlink.com 1.10,2013-06-01 12:21:00,
2013-06-01 08:36:00,64.9,64.0,29.76,West,263,5.0,5.0,96,0.00,,,0.32,weatherlink.com 1.10,2013-06-01 12:36:00,
2013-06-01 08:51:00,65.7,64.0,29.75,South,188,1.0,5.0,95,0.00,,,0.32,weatherlink.com 1.10,2013-06-01 12:51:00,
2013-06-01 09:06:00,67.4,66.0,29.74,WSW,246,1.0,5.0,94,0.00,,,0.32,weatherlink.com 1.10,2013-06-01 13:06:00,
2013-06-01 09:21:00,67.9,66.0,29.74,SSE,153,3.0,9.0,93,0.00,,,0.32,weatherlink.com 1.10,2013-06-01 13:21:00,
2013-06-01 09:36:00,68.1,66.0,29.76,SSW,205,0.0,5.0,92,0.00,,,0.32,weatherlink.com 1.10,2013-06-01 13:36:00,
2013-06-01 09:51:00,68.0,65.0,29.76,ENE,76,2.0,4.0,91,0.00,,,0.32,weatherlink.com 1.10,2013-06-01 13:51:00,
2013-06-01 10:06:00,68.3,66.0,29.77,West,268,2.0,7.0,92,0.00,,,0.32,weatherlink.com 1.10,2013-06-01 14:06:00,
2013-06-01 10:21:00,69.0,66.0,29.76,South,180,2.0,4.0,91,0.00,,,0.32,weatherlink.com 1.10,2013-06-01 14:21:00,
2013-06-01 10:36:00,70.4,66.0,29.77,SW,219,1.0,7.0,87,0.00,,,0.32,weatherlink.com 1.10,2013-06-01 14:36:00,
2013-06-01 10:51:00,70.6,66.0,29.77,West,261,2.0,6.0,85,0.00,,,0.32,weatherlink.com 1.10,2013-06-01 14:51:00,
2013-06-01 11:06:00,71.6,66.0,29.78,South,175,1.0,5.0,82,0.00,,,0.32,weatherlink.com 1.10,2013-06-01 15:06:00,
2013-06-01 11:21:00,71.1,66.0,29.79,SW,233,1.0,7.0,83,0.00,,,0.32,weatherlink.com 1.10,2013-06-01 15:21:00,
2013-06-01 11:36:00,72.4,68.0,29.78,SSW,212,4.0,6.0,85,0.00,,,0.32,weatherlink.com 1.10,2013-06-01 15:36:00,
2013-06-01 11:51:00,75.0,67.0,29.79,NNE,30,3.0,5.0,77,0.00,,,0.32,weatherlink.com 1.10,2013-06-01 15:51:00,
2013-06-01 12:06:00,75.7,67.0,29.79,SW,224,2.0,6.0,75,0.00,,,0.32,weatherlink.com 1.10,2013-06-01 16:06:00,
2013-06-01 12:22:00,76.0,67.0,29.79,SW,232,1.0,5.0,73,0.00,,,0.32,weatherlink.com 1.10,2013-06-01 16:22:00,
2013-06-01 12:37:00,75.4,66.0,29.79,SSE,150,1.0,5.0,73,0.00,,,0.32,weatherlink.com 1.10,2013-06-01 16:37:00,
2013-06-01 12:52:00,76.0,67.0,29.79,South,190,2.0,5.0,73,0.00,,,0.32,weatherlink.com 1.10,2013-06-01 16:52:00,
2013-06-01 13:07:00,76.4,66.0,29.78,South,186,1.0,6.0,70,0.00,,,0.32,weatherlink.com 1.10,2013-06-01 17:07:00,
2013-06-01 13:22:00,76.9,66.0,29.78,SW,218,0.0,7.0,70,0.00,,,0.32,weatherlink.com 1.10,2013-06-01 17:22:00,
2013-06-01 13:37:00,77.5,64.0,29.77,South,187,1.0,7.0,64,0.00,,,0.32,weatherlink.com 1.10,2013-06-01 17:37:00,
2013-06-01 13:52:00,77.6,67.0,29.78,NNE,27,2.0,7.0,70,0.00,,,0.32,weatherlink.com 1.10,2013-06-01 17:52:00,
2013-06-01 14:07:00,77.2,65.0,29.78,SSW,201,1.0,5.0,67,0.00,,,0.32,weatherlink.com 1.10,2013-06-01 18:07:00,
2013-06-01 14:22:00,77.2,65.0,29.77,WSW,244,2.0,7.0,67,0.00,,,0.32,weatherlink.com 1.10,2013-06-01 18:22:00,
2013-06-01 14:37:00,77.1,65.0,29.78,NNE,14,3.0,5.0,66,0.00,,,0.32,weatherlink.com 1.10,2013-06-01 18:37:00,
2013-06-01 14:52:00,77.2,65.0,29.77,SSE,154,2.0,6.0,67,0.00,,,0.32,weatherlink.com 1.10,2013-06-01 18:52:00,
2013-06-01 15:07:00,77.9,67.0,29.77,SW,235,2.0,9.0,68,0.00,,,0.32,weatherlink.com 1.10,2013-06-01 19:07:00,
2013-06-01 15:22:00,77.0,66.0,29.77,WNW,284,1.0,5.0,68,0.00,,,0.32,weatherlink.com 1.10,2013-06-01 19:22:00,
2013-06-01 15:37:00,77.5,66.0,29.77,East,82,1.0,4.0,67,0.00,,,0.32,weatherlink.com 1.10,2013-06-01 19:37:00,
2013-06-01 15:52:00,77.3,66.0,29.77,South,188,4.0,5.0,69,0.00,,,0.32,weatherlink.com 1.10,2013-06-01 19:52:00,
2013-06-01 16:07:00,77.0,66.0,29.77,SSW,213,2.0,6.0,68,0.00,,,0.32,weatherlink.com 1.10,2013-06-01 20:07:00,
2013-06-01 16:22:00,76.2,65.0,29.77,WSW,243,3.0,5.0,69,0.00,,,0.32,weatherlink.com 1.10,2013-06-01 20:22:00,
2013-06-01 16:37:00,76.5,66.0,29.77,WSW,238,2.0,6.0,71,0.00,,,0.32,weatherlink.com 1.10,2013-06-01 20:37:00,
2013-06-01 16:53:00,76.2,64.0,29.77,SE,130,4.0,10.0,66,0.00,,,0.32,weatherlink.com 1.10,2013-06-01 20:53:00,
2013-06-01 17:07:00,75.5,64.0,29.77,WSW,246,2.0,8.0,68,0.00,,,0.32,weatherlink.com 1.10,2013-06-01 21:07:00,
2013-06-01 17:22:00,75.4,64.0,29.77,SSE,161,2.0,5.0,67,0.00,,,0.32,weatherlink.com 1.10,2013-06-01 21:22:00,
2013-06-01 17:37:00,74.6,64.0,29.77,WSW,248,2.0,6.0,69,0.00,,,0.32,weatherlink.com 1.10,2013-06-01 21:37:00,
2013-06-01 17:52:00,73.6,63.0,29.77,WSW,246,3.0,6.0,70,0.00,,,0.32,weatherlink.com 1.10,2013-06-01 21:52:00,
2013-06-01 18:07:00,72.9,63.0,29.77,SW,217,2.0,5.0,72,0.00,,,0.32,weatherlink.com 1.10,2013-06-01 22:07:00,
2013-06-01 18:22:00,72.6,64.0,29.76,West,276,0.0,4.0,74,0.00,,,0.32,weatherlink.com 1.10,2013-06-01 22:22:00,
2013-06-01 18:37:00,72.6,64.0,29.75,ENE,76,2.0,3.0,75,0.00,,,0.32,weatherlink.com 1.10,2013-06-01 22:37:00,
2013-06-01 18:52:00,72.3,65.0,29.75,ENE,78,0.0,3.0,77,0.00,,,0.32,weatherlink.com 1.10,2013-06-01 22:52:00,
2013-06-01 19:07:00,72.0,64.0,29.76,SSW,206,1.0,2.0,77,0.00,,,0.32,weatherlink.com 1.10,2013-06-01 23:07:00,
2013-06-01 19:22:00,71.7,64.0,29.75,SW,227,0.0,2.0,77,0.00,,,0.32,weatherlink.com 1.10,2013-06-01 23:22:00,
2013-06-01 19:37:00,71.5,65.0,29.75,SSW,212,0.0,1.0,79,0.00,,,0.32,weatherlink.com 1.10,2013-06-01 23:37:00,
2013-06-01 19:52:00,71.3,65.0,29.75,WSW,246,0.0,1.0,80,0.00,,,0.32,weatherlink.com 1.10,2013-06-01 23:52:00,
2013-06-01 20:07:00,71.2,65.0,29.75,WSW,246,0.0,0.0,81,0.00,,,0.32,weatherlink.com 1.10,2013-06-02 00:07:00,
2013-06-01 20:22:00,71.1,66.0,29.75,WSW,246,0.0,0.0,83,0.00,,,0.32,weatherlink.com 1.10,2013-06-02 00:22:00,
2013-06-01 20:37:00,70.8,65.0,29.74,WSW,246,0.0,1.0,82,0.00,,,0.32,weatherlink.com 1.10,2013-06-02 00:37:00,
2013-06-01 20:52:00,70.4,65.0,29.74,SE,131,0.0,0.0,82,0.00,,,0.32,weatherlink.com 1.10,2013-06-02 00:52:00,
2013-06-01 21:07:00,70.1,64.0,29.73,SE,131,0.0,1.0,82,0.00,,,0.32,weatherlink.com 1.10,2013-06-02 01:07:00,
2013-06-01 21:22:00,69.6,64.0,29.73,SE,131,0.0,0.0,83,0.00,,,0.32,weatherlink.com 1.10,2013-06-02 01:22:00,
2013-06-01 21:37:00,69.1,64.0,29.73,West,265,0.0,1.0,84,0.00,,,0.32,weatherlink.com 1.10,2013-06-02 01:37:00,
2013-06-01 21:52:00,68.6,64.0,29.73,West,265,0.0,1.0,84,0.00,,,0.32,weatherlink.com 1.10,2013-06-02 01:52:00,
2013-06-01 22:07:00,68.2,63.0,29.72,West,265,0.0,0.0,84,0.00,,,0.32,weatherlink.com 1.10,2013-06-02 02:07:00,
2013-06-01 22:22:00,67.8,63.0,29.72,East,91,0.0,3.0,84,0.00,,,0.32,weatherlink.com 1.10,2013-06-02 02:22:00,
2013-06-01 22:37:00,67.7,63.0,29.71,East,91,0.0,0.0,85,0.00,,,0.32,weatherlink.com 1.10,2013-06-02 02:37:00,
2013-06-01 22:52:00,67.5,63.0,29.70,East,91,0.0,1.0,85,0.00,,,0.32,weatherlink.com 1.10,2013-06-02 02:52:00,
2013-06-01 23:07:00,67.2,63.0,29.70,East,91,0.0,0.0,87,0.00,,,0.32,weatherlink.com 1.10,2013-06-02 03:07:00,
2013-06-01 23:22:00,66.9,63.0,29.69,East,91,0.0,1.0,86,0.00,,,0.32,weatherlink.com 1.10,2013-06-02 03:22:00,
2013-06-01 23:37:00,66.5,62.0,29.68,East,91,0.0,1.0,86,0.00,,,0.32,weatherlink.com 1.10,2013-06-02 03:37:00,
2013-06-01 23:52:00,66.0,62.0,29.69,East,91,0.0,1.0,87,0.00,,,0.32,weatherlink.com 1.10,2013-06-02 03:52:00,